This is the latest recevied weather packets stored in our database for station/object DG1ROH. If no packets are shown the sender has not sent any weather packets the latest 10 day(s).
| Time | Temp. | Humidity | Pressure | Rain* | Wind** | Luminosity | Snow |
|---|---|---|---|---|---|---|---|
| 1777638089 | 23.33° C | 37% | 1027.2 hPa | 0 mm | - | 705 W/m² | - |
| 1777637969 | 22.78° C | 38% | 1027.3 hPa | 0 mm | - | 708 W/m² | - |
| 1777637850 | 22.78° C | 35% | 1027.3 hPa | 0 mm | - | 710 W/m² | - |
| 1777637729 | 22.78° C | 36% | 1027.3 hPa | 0 mm | - | 712 W/m² | - |
| 1777637609 | 22.22° C | 38% | 1027.3 hPa | 0 mm | - | 715 W/m² | - |
| 1777637488 | 22.22° C | 36% | 1027.4 hPa | 0 mm | - | 715 W/m² | - |
| 1777637369 | 22.22° C | 37% | 1027.3 hPa | 0 mm | - | 715 W/m² | - |
| 1777637249 | 22.22° C | 37% | 1027.4 hPa | 0 mm | - | 719 W/m² | - |
| 1777637130 | 22.22° C | 39% | 1027.4 hPa | 0 mm | - | 721 W/m² | - |
| 1777637009 | 21.67° C | 37% | 1027.4 hPa | 0 mm | - | 721 W/m² | - |
| 1777636889 | 22.22° C | 37% | 1027.4 hPa | 0 mm | - | 722 W/m² | - |
| 1777636769 | 22.22° C | 35% | 1027.4 hPa | 0 mm | - | 726 W/m² | - |
| 1777636649 | 22.22° C | 38% | 1027.4 hPa | 0 mm | - | 726 W/m² | - |
| 1777636529 | 22.22° C | 38% | 1027.4 hPa | 0 mm | - | 724 W/m² | - |
| 1777636409 | 21.67° C | 38% | 1027.5 hPa | 0 mm | - | 728 W/m² | - |
| 1777636289 | 22.22° C | 39% | 1027.5 hPa | 0 mm | - | 724 W/m² | - |
| 1777636170 | 22.22° C | 38% | 1027.4 hPa | 0 mm | - | 728 W/m² | - |
| 1777636049 | 22.22° C | 38% | 1027.5 hPa | 0 mm | - | 731 W/m² | - |
| 1777635929 | 22.22° C | 40% | 1027.5 hPa | 0 mm | - | 731 W/m² | - |
| 1777635809 | 21.67° C | 40% | 1027.5 hPa | 0 mm | - | 731 W/m² | - |
| 1777635689 | 21.67° C | 38% | 1027.5 hPa | 0 mm | - | 731 W/m² | - |
| 1777635569 | 21.67° C | 41% | 1027.6 hPa | 0 mm | - | 733 W/m² | - |
| 1777635449 | 21.11° C | 40% | 1027.6 hPa | 0 mm | - | 735 W/m² | - |
| 1777635329 | 21.11° C | 37% | 1027.6 hPa | 0 mm | - | 735 W/m² | - |
| 1777635209 | 21.67° C | 39% | 1027.6 hPa | 0 mm | - | 735 W/m² | - |
* Rain latest hour (hover to see other rain measurements)
** Current wind speed in m/s (hover to see current wind gust speed)